Year,Month,Day,Hour,Minute,Value (Times are PST for temperature in C)
2014,12,19,00,00,9.70
2014,12,19,00,01,9.70
2014,12,19,00,02,9.70
2014,12,19,00,03,9.70
2014,12,19,00,04,9.60
2014,12,19,00,05,9.60
2014,12,19,00,06,9.60
2014,12,19,00,07,9.60
2014,12,19,00,08,9.60
2014,12,19,00,09,9.60
2014,12,19,00,10,9.60
2014,12,19,00,11,9.60
2014,12,19,00,12,9.60
2014,12,19,00,13,9.50
2014,12,19,00,14,9.50
2014,12,19,00,15,9.50
2014,12,19,00,16,9.50
2014,12,19,00,17,9.50
2014,12,19,00,18,9.40
2014,12,19,00,19,9.40
2014,12,19,00,20,9.40
2014,12,19,00,21,9.40
2014,12,19,00,22,9.30
2014,12,19,00,23,9.30
2014,12,19,00,24,9.30
2014,12,19,00,25,9.30
2014,12,19,00,26,9.20
2014,12,19,00,27,9.20
2014,12,19,00,28,9.20
2014,12,19,00,29,9.20
2014,12,19,00,30,9.20
2014,12,19,00,31,9.20
2014,12,19,00,32,9.10
2014,12,19,00,33,9.10
2014,12,19,00,34,9.10
2014,12,19,00,35,9.10
2014,12,19,00,36,9.10
2014,12,19,00,37,9.00
2014,12,19,00,38,9.00
2014,12,19,00,39,9.00
2014,12,19,00,40,9.00
2014,12,19,00,41,9.00
2014,12,19,00,42,9.00
2014,12,19,00,43,9.00
2014,12,19,00,44,9.00
2014,12,19,00,45,8.90
2014,12,19,00,46,8.90
2014,12,19,00,47,8.90
2014,12,19,00,48,8.90
2014,12,19,00,49,8.90
2014,12,19,00,50,8.90
2014,12,19,00,51,8.90
2014,12,19,00,52,8.90
2014,12,19,00,53,8.90
2014,12,19,00,54,8.90
2014,12,19,00,55,8.90
2014,12,19,00,56,8.90
2014,12,19,00,57,8.90
2014,12,19,00,58,8.90
2014,12,19,00,59,8.90
2014,12,19,01,00,8.90
2014,12,19,01,01,8.90
2014,12,19,01,02,8.90
2014,12,19,01,03,9.00
2014,12,19,01,04,9.00
2014,12,19,01,05,8.90
2014,12,19,01,06,9.00
2014,12,19,01,07,9.00
2014,12,19,01,08,9.00
2014,12,19,01,09,9.00
2014,12,19,01,10,9.00
2014,12,19,01,11,9.00
2014,12,19,01,12,9.00
2014,12,19,01,13,9.00
2014,12,19,01,14,9.00
2014,12,19,01,15,9.00
2014,12,19,01,16,9.00
2014,12,19,01,17,9.00
2014,12,19,01,18,9.00
2014,12,19,01,19,9.00
2014,12,19,01,20,9.00
2014,12,19,01,21,9.00
2014,12,19,01,22,9.00
2014,12,19,01,23,9.00
2014,12,19,01,24,9.00
2014,12,19,01,25,9.00
2014,12,19,01,26,9.00
2014,12,19,01,27,9.00
2014,12,19,01,28,9.00
2014,12,19,01,29,9.00
2014,12,19,01,30,9.00
2014,12,19,01,31,9.00
2014,12,19,01,32,9.00
2014,12,19,01,33,9.00
2014,12,19,01,34,9.00
2014,12,19,01,35,9.00
2014,12,19,01,36,9.00
2014,12,19,01,37,9.00
2014,12,19,01,38,9.00
2014,12,19,01,39,9.00
2014,12,19,01,40,9.10
2014,12,19,01,41,9.10
2014,12,19,01,42,9.10
2014,12,19,01,43,9.10
2014,12,19,01,44,9.00
2014,12,19,01,45,9.00
2014,12,19,01,46,9.00
2014,12,19,01,47,9.00
2014,12,19,01,48,9.00
2014,12,19,01,49,9.00
2014,12,19,01,50,9.00
2014,12,19,01,51,9.00
2014,12,19,01,52,9.00
2014,12,19,01,53,9.00
2014,12,19,01,54,9.00
2014,12,19,01,55,9.00
2014,12,19,01,56,8.90
2014,12,19,01,57,8.90
2014,12,19,01,58,8.90
2014,12,19,01,59,8.90
2014,12,19,02,00,8.90
2014,12,19,02,01,8.90
2014,12,19,02,02,8.90
2014,12,19,02,03,8.80
2014,12,19,02,04,8.80
2014,12,19,02,05,8.80
2014,12,19,02,06,8.70
2014,12,19,02,07,8.70
2014,12,19,02,08,8.70
2014,12,19,02,09,8.70
2014,12,19,02,10,8.70
2014,12,19,02,11,8.70
2014,12,19,02,12,8.60
2014,12,19,02,13,8.60
2014,12,19,02,14,8.60
2014,12,19,02,15,8.50
2014,12,19,02,16,8.50
2014,12,19,02,17,8.50
2014,12,19,02,18,8.40
2014,12,19,02,19,8.40
2014,12,19,02,20,8.30
2014,12,19,02,21,8.30
2014,12,19,02,22,8.30
2014,12,19,02,23,8.20
2014,12,19,02,24,8.20
2014,12,19,02,25,8.20
2014,12,19,02,26,8.20
2014,12,19,02,27,8.20
2014,12,19,02,28,8.20
2014,12,19,02,29,8.10
2014,12,19,02,30,8.10
2014,12,19,02,31,8.10
2014,12,19,02,32,8.10
2014,12,19,02,33,8.00
2014,12,19,02,34,8.00
2014,12,19,02,35,8.00
2014,12,19,02,36,8.00
2014,12,19,02,37,8.00
2014,12,19,02,38,7.90
2014,12,19,02,39,7.90
2014,12,19,02,40,7.90
2014,12,19,02,41,7.80
2014,12,19,02,42,7.80
2014,12,19,02,43,7.80
2014,12,19,02,44,7.80
2014,12,19,02,45,7.80
2014,12,19,02,46,7.80
2014,12,19,02,47,7.70
2014,12,19,02,48,7.60
2014,12,19,02,49,7.60
2014,12,19,02,50,7.60
2014,12,19,02,51,7.50
2014,12,19,02,52,7.50
2014,12,19,02,53,7.50
2014,12,19,02,54,7.50
2014,12,19,02,55,7.50
2014,12,19,02,56,7.40
2014,12,19,02,57,7.40
2014,12,19,02,58,7.40
2014,12,19,02,59,7.40
2014,12,19,03,00,7.40
2014,12,19,03,01,7.40
2014,12,19,03,02,7.30
2014,12,19,03,03,7.30
2014,12,19,03,04,7.30
2014,12,19,03,05,7.30
2014,12,19,03,06,7.30
2014,12,19,03,07,7.30
2014,12,19,03,08,7.20
2014,12,19,03,09,7.20
2014,12,19,03,10,7.20
2014,12,19,03,11,7.10
2014,12,19,03,12,7.10
2014,12,19,03,13,7.10
2014,12,19,03,14,7.10
2014,12,19,03,15,7.10
2014,12,19,03,16,7.10
2014,12,19,03,17,7.00
2014,12,19,03,18,7.00
2014,12,19,03,19,7.00
2014,12,19,03,20,7.00
2014,12,19,03,21,7.00
2014,12,19,03,22,7.00
2014,12,19,03,23,7.00
2014,12,19,03,24,7.00
2014,12,19,03,25,7.00
2014,12,19,03,26,6.90
2014,12,19,03,27,6.90
2014,12,19,03,28,6.90
2014,12,19,03,29,6.90
2014,12,19,03,30,6.90
2014,12,19,03,31,6.90
2014,12,19,03,32,6.90
2014,12,19,03,33,6.90
2014,12,19,03,34,6.90
2014,12,19,03,35,6.80
2014,12,19,03,36,6.80
2014,12,19,03,37,6.80
2014,12,19,03,38,6.80
2014,12,19,03,39,6.80
2014,12,19,03,40,6.80
2014,12,19,03,41,6.80
2014,12,19,03,42,6.80
2014,12,19,03,43,6.70
2014,12,19,03,44,6.70
2014,12,19,03,45,6.70
2014,12,19,03,46,6.70
2014,12,19,03,47,6.70
2014,12,19,03,48,6.70
2014,12,19,03,49,6.70
2014,12,19,03,50,6.60
2014,12,19,03,51,6.60
2014,12,19,03,52,6.60
2014,12,19,03,53,6.60
2014,12,19,03,54,6.60
2014,12,19,03,55,6.60
2014,12,19,03,56,6.60
2014,12,19,03,57,6.60
2014,12,19,03,58,6.60
2014,12,19,03,59,6.60
2014,12,19,04,00,6.60
2014,12,19,04,01,6.60
2014,12,19,04,02,6.60
2014,12,19,04,03,6.60
2014,12,19,04,04,6.60
2014,12,19,04,05,6.50
2014,12,19,04,06,6.40
2014,12,19,04,07,6.40
2014,12,19,04,08,6.40
2014,12,19,04,09,6.40
2014,12,19,04,10,6.40
2014,12,19,04,11,6.40
2014,12,19,04,12,6.40
2014,12,19,04,13,6.40
2014,12,19,04,14,6.40
2014,12,19,04,15,6.40
2014,12,19,04,16,6.40
2014,12,19,04,17,6.40
2014,12,19,04,18,6.40
2014,12,19,04,19,6.40
2014,12,19,04,20,6.40
2014,12,19,04,21,6.30
2014,12,19,04,22,6.30
2014,12,19,04,23,6.30
2014,12,19,04,24,6.30
2014,12,19,04,25,6.20
2014,12,19,04,26,6.20
2014,12,19,04,27,6.20
2014,12,19,04,28,6.20
2014,12,19,04,29,6.30
2014,12,19,04,30,6.30
2014,12,19,04,31,6.30
2014,12,19,04,32,6.30
2014,12,19,04,33,6.40
2014,12,19,04,34,6.40
2014,12,19,04,35,6.40
2014,12,19,04,36,6.40
2014,12,19,04,37,6.40
2014,12,19,04,38,6.40
2014,12,19,04,39,6.40
2014,12,19,04,40,6.30
2014,12,19,04,41,6.30
2014,12,19,04,42,6.30
2014,12,19,04,43,6.30
2014,12,19,04,44,6.30
2014,12,19,04,45,6.30
2014,12,19,04,46,6.30
2014,12,19,04,47,6.30
2014,12,19,04,48,6.40
2014,12,19,04,49,6.40
2014,12,19,04,50,6.50
2014,12,19,04,51,6.60
2014,12,19,04,52,6.70
2014,12,19,04,53,6.80
2014,12,19,04,54,6.90
2014,12,19,04,55,7.00
2014,12,19,04,56,7.10
2014,12,19,04,57,7.20
2014,12,19,04,58,7.30
2014,12,19,04,59,7.30
2014,12,19,05,00,7.30
2014,12,19,05,01,7.40
2014,12,19,05,02,7.40
2014,12,19,05,03,7.50
2014,12,19,05,04,7.50
2014,12,19,05,05,7.60
2014,12,19,05,06,7.60
2014,12,19,05,07,7.60
2014,12,19,05,08,7.70
2014,12,19,05,09,7.70
2014,12,19,05,10,7.70
2014,12,19,05,11,7.70
2014,12,19,05,12,7.70
2014,12,19,05,13,7.70
2014,12,19,05,14,7.70
2014,12,19,05,15,7.70
2014,12,19,05,16,7.70
2014,12,19,05,17,7.70
2014,12,19,05,18,7.70
2014,12,19,05,19,7.70
2014,12,19,05,20,7.70
2014,12,19,05,21,7.70
2014,12,19,05,22,7.70
2014,12,19,05,23,7.70
2014,12,19,05,24,7.70
2014,12,19,05,25,7.70
2014,12,19,05,26,7.70
2014,12,19,05,27,7.70
2014,12,19,05,28,7.70
2014,12,19,05,29,7.70
2014,12,19,05,30,7.70
2014,12,19,05,31,7.80
2014,12,19,05,32,7.80
2014,12,19,05,33,7.80
2014,12,19,05,34,7.80
2014,12,19,05,35,7.80
2014,12,19,05,36,7.80
2014,12,19,05,37,7.80
2014,12,19,05,38,7.80
2014,12,19,05,39,7.80
2014,12,19,05,40,7.80
2014,12,19,05,41,7.80
2014,12,19,05,42,7.80
2014,12,19,05,43,7.80
2014,12,19,05,44,7.80
2014,12,19,05,45,7.80
2014,12,19,05,46,7.80
2014,12,19,05,47,7.80
2014,12,19,05,48,7.80
2014,12,19,05,49,7.80
2014,12,19,05,50,7.80
2014,12,19,05,51,7.80
2014,12,19,05,52,7.80
2014,12,19,05,53,7.80
2014,12,19,05,54,7.80
2014,12,19,05,55,7.80
2014,12,19,05,56,7.90
2014,12,19,05,57,7.90
2014,12,19,05,58,7.90
2014,12,19,05,59,7.90
2014,12,19,06,00,8.00
2014,12,19,06,01,8.00
2014,12,19,06,02,8.10
2014,12,19,06,03,8.10
2014,12,19,06,04,8.20
2014,12,19,06,05,8.20
2014,12,19,06,06,8.20
2014,12,19,06,07,8.20
2014,12,19,06,08,8.20
2014,12,19,06,09,8.20
2014,12,19,06,10,8.20
2014,12,19,06,11,8.20
2014,12,19,06,12,8.10
2014,12,19,06,13,8.10
2014,12,19,06,14,8.10
2014,12,19,06,15,8.00
2014,12,19,06,16,8.00
2014,12,19,06,17,8.00
2014,12,19,06,18,8.00
2014,12,19,06,19,7.90
2014,12,19,06,20,7.90
2014,12,19,06,21,7.90
2014,12,19,06,22,7.80
2014,12,19,06,23,7.80
2014,12,19,06,24,7.80
2014,12,19,06,25,7.80
2014,12,19,06,26,7.70
2014,12,19,06,27,7.70
2014,12,19,06,28,7.70
2014,12,19,06,29,7.70
2014,12,19,06,30,7.60
2014,12,19,06,31,7.60
2014,12,19,06,32,7.60
2014,12,19,06,33,7.50
2014,12,19,06,34,7.50
2014,12,19,06,35,7.50
2014,12,19,06,36,7.40
2014,12,19,06,37,7.40
2014,12,19,06,38,7.30
2014,12,19,06,39,7.30
2014,12,19,06,40,7.30
2014,12,19,06,41,7.30
2014,12,19,06,42,7.30
2014,12,19,06,43,7.30
2014,12,19,06,44,7.20
2014,12,19,06,45,7.20
2014,12,19,06,46,7.20
2014,12,19,06,47,7.20
2014,12,19,06,48,7.20
2014,12,19,06,49,7.20
2014,12,19,06,50,7.20
2014,12,19,06,51,7.20
2014,12,19,06,52,7.10
2014,12,19,06,53,7.00
2014,12,19,06,54,7.00
2014,12,19,06,55,7.00
2014,12,19,06,56,7.00
2014,12,19,06,57,7.00
2014,12,19,06,58,6.90
2014,12,19,06,59,6.90
2014,12,19,07,00,6.90
2014,12,19,07,01,6.90
2014,12,19,07,02,6.90
2014,12,19,07,03,6.90
2014,12,19,07,04,6.90
2014,12,19,07,05,6.90
2014,12,19,07,06,6.90
2014,12,19,07,07,6.90
2014,12,19,07,08,6.80
2014,12,19,07,09,6.80
2014,12,19,07,10,6.80
2014,12,19,07,11,6.80
2014,12,19,07,12,6.80
2014,12,19,07,13,6.80
2014,12,19,07,14,6.80
2014,12,19,07,15,6.80
2014,12,19,07,16,6.80
2014,12,19,07,17,6.80
2014,12,19,07,18,6.80
2014,12,19,07,19,6.80
2014,12,19,07,20,6.80
2014,12,19,07,21,6.70
2014,12,19,07,22,6.70
2014,12,19,07,23,6.70
2014,12,19,07,24,6.70
2014,12,19,07,25,6.70
2014,12,19,07,26,6.70
2014,12,19,07,27,6.70
2014,12,19,07,28,6.70
2014,12,19,07,29,6.60
2014,12,19,07,30,6.60
2014,12,19,07,31,6.60
2014,12,19,07,32,6.60
2014,12,19,07,33,6.60
2014,12,19,07,34,6.60
2014,12,19,07,35,6.60
2014,12,19,07,36,6.60
2014,12,19,07,37,6.60
2014,12,19,07,38,6.40
2014,12,19,07,39,6.40
2014,12,19,07,40,6.40
2014,12,19,07,41,6.40
2014,12,19,07,42,6.40
2014,12,19,07,43,6.30
2014,12,19,07,44,6.30
2014,12,19,07,45,6.30
2014,12,19,07,46,6.30
2014,12,19,07,47,6.20
2014,12,19,07,48,6.20
2014,12,19,07,49,6.20
2014,12,19,07,50,6.20
2014,12,19,07,51,6.20
2014,12,19,07,52,6.20
2014,12,19,07,53,6.20
2014,12,19,07,54,6.20
2014,12,19,07,55,6.20
2014,12,19,07,56,6.20
2014,12,19,07,57,6.10
2014,12,19,07,58,6.10
2014,12,19,07,59,6.10
2014,12,19,08,00,6.10
2014,12,19,08,01,6.00
2014,12,19,08,02,6.00
2014,12,19,08,03,6.00
2014,12,19,08,04,6.00
2014,12,19,08,05,6.00
2014,12,19,08,06,6.00
2014,12,19,08,07,6.00
2014,12,19,08,08,5.90
2014,12,19,08,09,5.90
2014,12,19,08,10,5.90
2014,12,19,08,11,5.90
2014,12,19,08,12,5.80
2014,12,19,08,13,5.80
2014,12,19,08,14,5.80
2014,12,19,08,15,5.70
2014,12,19,08,16,5.70
2014,12,19,08,17,5.70
2014,12,19,08,18,5.70
2014,12,19,08,19,5.70
2014,12,19,08,20,5.70
2014,12,19,08,21,5.70
2014,12,19,08,22,5.70
2014,12,19,08,23,5.70
2014,12,19,08,24,5.70
2014,12,19,08,25,5.70
2014,12,19,08,26,5.70
2014,12,19,08,27,5.60
2014,12,19,08,28,5.60
2014,12,19,08,29,5.60
2014,12,19,08,30,5.60
2014,12,19,08,31,5.60
2014,12,19,08,32,5.50
2014,12,19,08,33,5.50
2014,12,19,08,34,5.50
2014,12,19,08,35,5.50
2014,12,19,08,36,5.50
2014,12,19,08,37,5.40
2014,12,19,08,38,5.40
2014,12,19,08,39,5.40
2014,12,19,08,40,5.30
2014,12,19,08,41,5.30
2014,12,19,08,42,5.30
2014,12,19,08,43,5.30
2014,12,19,08,44,5.30
2014,12,19,08,45,5.30
2014,12,19,08,46,5.30
2014,12,19,08,47,5.30
2014,12,19,08,48,5.30
2014,12,19,08,49,5.30
2014,12,19,08,50,5.30
2014,12,19,08,51,5.30
2014,12,19,08,52,5.30
2014,12,19,08,53,5.30
2014,12,19,08,54,5.30
2014,12,19,08,55,5.30
2014,12,19,08,56,5.30
2014,12,19,08,57,5.30
2014,12,19,08,58,5.30
2014,12,19,08,59,5.30
2014,12,19,09,00,5.30
2014,12,19,09,01,5.30
2014,12,19,09,02,5.30
2014,12,19,09,03,5.30
2014,12,19,09,04,5.40
2014,12,19,09,05,5.40
2014,12,19,09,06,5.40
2014,12,19,09,07,5.40
2014,12,19,09,08,5.40
2014,12,19,09,09,5.40
2014,12,19,09,10,5.40
2014,12,19,09,11,5.40
2014,12,19,09,12,5.40
2014,12,19,09,13,5.40
2014,12,19,09,14,5.40
2014,12,19,09,15,5.40
2014,12,19,09,16,5.40
2014,12,19,09,17,5.40
2014,12,19,09,18,5.40
2014,12,19,09,19,5.40
2014,12,19,09,20,5.40
2014,12,19,09,21,5.40
2014,12,19,09,22,5.40
2014,12,19,09,23,5.40
2014,12,19,09,24,5.40
2014,12,19,09,25,5.50
2014,12,19,09,26,5.50
2014,12,19,09,27,5.50
2014,12,19,09,28,5.60
2014,12,19,09,29,5.60
2014,12,19,09,30,5.60
2014,12,19,09,31,5.70
2014,12,19,09,32,5.70
2014,12,19,09,33,5.80
2014,12,19,09,34,5.90
2014,12,19,09,35,5.90
2014,12,19,09,36,6.00
2014,12,19,09,37,6.10
2014,12,19,09,38,6.20
2014,12,19,09,39,6.30
2014,12,19,09,40,6.40
2014,12,19,09,41,6.40
2014,12,19,09,42,6.40
2014,12,19,09,43,6.40
2014,12,19,09,44,6.40
2014,12,19,09,45,6.40
2014,12,19,09,46,6.40
2014,12,19,09,47,6.40
2014,12,19,09,48,6.40
2014,12,19,09,49,6.40
2014,12,19,09,50,6.50
2014,12,19,09,51,6.60
2014,12,19,09,52,6.60
2014,12,19,09,53,6.70
2014,12,19,09,54,6.80
2014,12,19,09,55,6.80
2014,12,19,09,56,6.80
2014,12,19,09,57,6.80
2014,12,19,09,58,6.90
2014,12,19,09,59,6.90
2014,12,19,10,00,6.90
2014,12,19,10,01,7.00
2014,12,19,10,02,7.00
2014,12,19,10,03,7.10
2014,12,19,10,04,7.20
2014,12,19,10,05,7.30
2014,12,19,10,06,7.30
2014,12,19,10,07,7.40
2014,12,19,10,08,7.40
2014,12,19,10,09,7.40
2014,12,19,10,10,7.40
2014,12,19,10,11,7.40
2014,12,19,10,12,7.40
2014,12,19,10,13,7.40
2014,12,19,10,14,7.50
2014,12,19,10,15,7.70
2014,12,19,10,16,7.70
2014,12,19,10,17,7.70
2014,12,19,10,18,7.70
2014,12,19,10,19,7.70
2014,12,19,10,20,7.80
2014,12,19,10,21,7.80
2014,12,19,10,22,7.80
2014,12,19,10,23,7.80
2014,12,19,10,24,7.80
2014,12,19,10,25,7.80
2014,12,19,10,26,7.90
2014,12,19,10,27,7.90
2014,12,19,10,28,7.90
2014,12,19,10,29,7.90
2014,12,19,10,30,8.00
2014,12,19,10,31,8.00
2014,12,19,10,32,8.00
2014,12,19,10,33,8.10
2014,12,19,10,34,8.10
2014,12,19,10,35,8.20
2014,12,19,10,36,8.20
2014,12,19,10,37,8.20
2014,12,19,10,38,8.20
2014,12,19,10,39,8.20
2014,12,19,10,40,8.30
2014,12,19,10,41,8.30
2014,12,19,10,42,8.30
2014,12,19,10,43,8.30
2014,12,19,10,44,8.30
2014,12,19,10,45,8.40
2014,12,19,10,46,8.40
2014,12,19,10,47,8.40
2014,12,19,10,48,8.40
2014,12,19,10,49,8.40
2014,12,19,10,50,8.30
2014,12,19,10,51,8.30
2014,12,19,10,52,8.30
2014,12,19,10,53,8.30
2014,12,19,10,54,8.30
2014,12,19,10,55,8.30
2014,12,19,10,56,8.30
2014,12,19,10,57,8.30
2014,12,19,10,58,8.30
2014,12,19,10,59,8.30
2014,12,19,11,00,8.30
2014,12,19,11,01,8.30
2014,12,19,11,02,8.20
2014,12,19,11,03,8.20
2014,12,19,11,04,8.20
2014,12,19,11,05,8.20
2014,12,19,11,06,8.20
2014,12,19,11,07,8.20
2014,12,19,11,08,8.20
2014,12,19,11,09,8.20
2014,12,19,11,10,8.20
2014,12,19,11,11,8.20
2014,12,19,11,12,8.20
2014,12,19,11,13,8.20
2014,12,19,11,14,8.20
2014,12,19,11,15,8.20
2014,12,19,11,16,8.20
2014,12,19,11,17,8.20
2014,12,19,11,18,8.20
2014,12,19,11,19,8.20
2014,12,19,11,20,8.20
2014,12,19,11,21,8.20
2014,12,19,11,22,8.20
2014,12,19,11,23,8.20
2014,12,19,11,24,8.20
2014,12,19,11,25,8.20
2014,12,19,11,26,8.20
2014,12,19,11,27,8.30
2014,12,19,11,28,8.30
2014,12,19,11,29,8.30
2014,12,19,11,30,8.30
2014,12,19,11,31,8.30
2014,12,19,11,32,8.30
2014,12,19,11,33,8.40
2014,12,19,11,34,8.40
2014,12,19,11,35,8.40
2014,12,19,11,36,8.40
2014,12,19,11,37,8.40
2014,12,19,11,38,8.40
2014,12,19,11,39,8.50
2014,12,19,11,40,8.50
2014,12,19,11,41,8.50
2014,12,19,11,42,8.50
2014,12,19,11,43,8.50
2014,12,19,11,44,8.50
2014,12,19,11,45,8.40
2014,12,19,11,46,8.40
2014,12,19,11,47,8.40
2014,12,19,11,48,8.40
2014,12,19,11,49,8.40
2014,12,19,11,50,8.40
2014,12,19,11,51,8.40
2014,12,19,11,52,8.40
2014,12,19,11,53,8.40
2014,12,19,11,54,8.40
2014,12,19,11,55,8.40
2014,12,19,11,56,8.40
2014,12,19,11,57,8.30
2014,12,19,11,58,8.30
2014,12,19,11,59,8.30
2014,12,19,12,00,8.30
2014,12,19,12,01,8.40
2014,12,19,12,02,8.40
2014,12,19,12,03,8.40
2014,12,19,12,04,8.40
2014,12,19,12,05,8.40
2014,12,19,12,06,8.50
2014,12,19,12,07,8.50
2014,12,19,12,08,8.50
2014,12,19,12,09,8.50
2014,12,19,12,10,8.50
2014,12,19,12,11,8.50
2014,12,19,12,12,8.50
2014,12,19,12,13,8.50
2014,12,19,12,14,8.50
2014,12,19,12,15,8.50
2014,12,19,12,16,8.50
2014,12,19,14,48,9.20
2014,12,19,14,49,9.20
2014,12,19,14,50,9.20
2014,12,19,14,51,9.20
2014,12,19,14,52,9.20
2014,12,19,14,53,9.20
2014,12,19,14,54,9.20
2014,12,19,14,55,9.20
2014,12,19,14,56,9.30
2014,12,19,14,57,9.30
2014,12,19,14,58,9.30
2014,12,19,14,59,9.30
2014,12,19,15,00,9.30
2014,12,19,15,01,9.20
2014,12,19,15,02,9.20
2014,12,19,15,03,9.20
2014,12,19,15,04,9.20
2014,12,19,15,05,9.20
2014,12,19,15,06,9.20
2014,12,19,15,07,9.20
2014,12,19,15,08,9.20
2014,12,19,15,09,9.20
2014,12,19,15,10,9.20
2014,12,19,15,11,9.20
2014,12,19,15,12,9.20
2014,12,19,15,13,9.20
2014,12,19,15,14,9.20
2014,12,19,15,15,9.20
2014,12,19,15,16,9.20
2014,12,19,15,17,9.20
2014,12,19,15,18,9.20
2014,12,19,15,19,9.20
2014,12,19,15,20,9.20
2014,12,19,15,21,9.20
2014,12,19,15,22,9.20
2014,12,19,15,23,9.20
2014,12,19,15,24,9.30
2014,12,19,15,25,9.30
2014,12,19,15,26,9.40
2014,12,19,15,27,9.40
2014,12,19,15,28,9.40
2014,12,19,15,29,9.40
2014,12,19,15,30,9.50
2014,12,19,15,31,9.50
2014,12,19,15,32,9.50
2014,12,19,15,33,9.50
2014,12,19,15,34,9.50
2014,12,19,15,35,9.50
2014,12,19,15,36,9.40
2014,12,19,15,37,9.40
2014,12,19,15,38,9.40
2014,12,19,15,39,9.40
2014,12,19,15,40,9.30
2014,12,19,15,41,9.30
2014,12,19,15,42,9.20
2014,12,19,15,43,9.20
2014,12,19,15,44,9.20
2014,12,19,15,45,9.20
2014,12,19,15,46,9.20
2014,12,19,15,47,9.20
2014,12,19,15,48,9.10
2014,12,19,15,49,9.10
2014,12,19,15,50,9.10
2014,12,19,15,51,9.00
2014,12,19,15,52,9.00
2014,12,19,15,53,8.90
2014,12,19,15,54,8.90
2014,12,19,15,55,8.80
2014,12,19,15,56,8.80
2014,12,19,15,57,8.70
2014,12,19,15,58,8.70
2014,12,19,15,59,8.70
2014,12,19,16,00,8.70
2014,12,19,16,01,8.60
2014,12,19,16,02,8.60
2014,12,19,16,03,8.60
2014,12,19,16,04,8.50
2014,12,19,16,05,8.50
2014,12,19,16,06,8.50
2014,12,19,16,07,8.40
2014,12,19,16,08,8.40
2014,12,19,16,09,8.40
2014,12,19,16,10,8.40
2014,12,19,16,11,8.40
2014,12,19,16,12,8.30
2014,12,19,16,13,8.30
2014,12,19,16,14,8.30
2014,12,19,16,15,8.30
2014,12,19,16,16,8.20
2014,12,19,16,17,8.20
2014,12,19,16,18,8.20
2014,12,19,16,19,8.20
2014,12,19,16,20,8.20
2014,12,19,16,21,8.10
2014,12,19,16,22,8.10
2014,12,19,16,23,8.10
2014,12,19,16,24,8.00
2014,12,19,16,25,8.00
2014,12,19,16,26,8.00
2014,12,19,16,27,8.00
2014,12,19,16,28,7.90
2014,12,19,16,29,7.90
2014,12,19,16,30,7.90
2014,12,19,16,31,7.90
2014,12,19,16,32,7.90
2014,12,19,16,33,7.90
2014,12,19,16,34,7.90
2014,12,19,16,35,7.80
2014,12,19,16,36,7.80
2014,12,19,16,37,7.80
2014,12,19,16,38,7.80
2014,12,19,16,39,7.80
2014,12,19,16,40,7.80
2014,12,19,16,41,7.80
2014,12,19,16,42,7.70
2014,12,19,16,43,7.70
2014,12,19,16,44,7.70
2014,12,19,16,45,7.60
2014,12,19,16,46,7.60
2014,12,19,16,47,7.60
2014,12,19,16,48,7.60
2014,12,19,16,49,7.50
2014,12,19,16,50,7.50
2014,12,19,16,51,7.50
2014,12,19,16,52,7.50
2014,12,19,16,53,7.40
2014,12,19,16,54,7.40
2014,12,19,16,55,7.40
2014,12,19,16,56,7.30
2014,12,19,16,57,7.30
2014,12,19,16,58,7.30
2014,12,19,16,59,7.30
2014,12,19,17,00,7.30
2014,12,19,17,01,7.30
2014,12,19,17,02,7.30
2014,12,19,17,03,7.30
2014,12,19,17,04,7.30
2014,12,19,17,05,7.20
2014,12,19,17,06,7.20
2014,12,19,17,07,7.20
2014,12,19,17,08,7.20
2014,12,19,17,09,7.10
2014,12,19,17,10,7.10
2014,12,19,17,11,7.10
2014,12,19,17,12,7.10
2014,12,19,17,13,7.10
2014,12,19,17,14,7.10
2014,12,19,17,15,7.10
2014,12,19,17,16,7.10
2014,12,19,17,17,7.10
2014,12,19,17,18,7.10
2014,12,19,17,19,7.10
2014,12,19,17,20,7.10
2014,12,19,17,21,7.00
2014,12,19,17,22,7.00
2014,12,19,17,23,7.00
2014,12,19,17,24,6.90
2014,12,19,17,25,6.90
2014,12,19,17,26,6.90
2014,12,19,17,27,6.90
2014,12,19,17,28,6.80
2014,12,19,17,29,6.80
2014,12,19,17,30,6.80
2014,12,19,17,31,6.80
2014,12,19,17,32,6.80
2014,12,19,17,33,6.80
2014,12,19,17,34,6.80
2014,12,19,17,35,6.80
2014,12,19,17,36,6.80
2014,12,19,17,37,6.80
2014,12,19,17,38,6.80
2014,12,19,17,39,6.80
2014,12,19,17,40,6.80
2014,12,19,17,41,6.80
2014,12,19,17,42,6.80
2014,12,19,17,43,6.80
2014,12,19,17,44,6.80
2014,12,19,17,45,6.80
2014,12,19,17,46,6.80
2014,12,19,17,47,6.80
2014,12,19,17,48,6.80
2014,12,19,17,49,6.80
2014,12,19,17,50,6.80
2014,12,19,17,51,6.80
2014,12,19,17,52,6.70
2014,12,19,17,53,6.70
2014,12,19,17,54,6.70
2014,12,19,17,55,6.70
2014,12,19,17,56,6.70
2014,12,19,17,57,6.70
2014,12,19,17,58,6.70
2014,12,19,17,59,6.70
2014,12,19,18,00,6.70
2014,12,19,18,01,6.70
2014,12,19,18,02,6.70
2014,12,19,18,03,6.70
2014,12,19,18,04,6.70
2014,12,19,18,05,6.70
2014,12,19,18,06,6.60
2014,12,19,18,07,6.60
2014,12,19,18,08,6.60
2014,12,19,18,09,6.60
2014,12,19,18,10,6.60
2014,12,19,18,11,6.60
2014,12,19,18,12,6.60
2014,12,19,18,13,6.60
2014,12,19,18,14,6.60
2014,12,19,18,15,6.60
2014,12,19,18,16,6.60
2014,12,19,18,17,6.60
2014,12,19,18,18,6.60
2014,12,19,18,19,6.60
2014,12,19,18,20,6.60
2014,12,19,18,21,6.60
2014,12,19,18,22,6.60
2014,12,19,18,23,6.60
2014,12,19,18,24,6.60
2014,12,19,18,25,6.60
2014,12,19,18,26,6.60
2014,12,19,18,27,6.60
2014,12,19,18,28,6.60
2014,12,19,18,29,6.60
2014,12,19,18,30,6.60
2014,12,19,18,31,6.60
2014,12,19,18,32,6.60
2014,12,19,18,33,6.60
2014,12,19,18,34,6.60
2014,12,19,18,35,6.60
2014,12,19,18,36,6.60
2014,12,19,18,37,6.60
2014,12,19,18,38,6.60
2014,12,19,18,39,6.50
2014,12,19,18,40,6.40
2014,12,19,18,41,6.40
2014,12,19,18,42,6.40
2014,12,19,18,43,6.40
2014,12,19,18,44,6.40
2014,12,19,18,45,6.40
2014,12,19,18,46,6.40
2014,12,19,18,47,6.40
2014,12,19,18,48,6.40
2014,12,19,18,49,6.40
2014,12,19,18,50,6.40
2014,12,19,18,51,6.40
2014,12,19,18,52,6.40
2014,12,19,18,53,6.40
2014,12,19,18,54,6.40
2014,12,19,18,55,6.40
2014,12,19,18,56,6.40
2014,12,19,18,57,6.40
2014,12,19,18,58,6.40
2014,12,19,18,59,6.40
2014,12,19,19,00,6.40
2014,12,19,19,01,6.40
2014,12,19,19,02,6.40
2014,12,19,19,03,6.40
2014,12,19,19,04,6.40
2014,12,19,19,05,6.40
2014,12,19,19,06,6.40
2014,12,19,19,07,6.40
2014,12,19,19,08,6.40
2014,12,19,19,09,6.40
2014,12,19,19,10,6.40
2014,12,19,19,11,6.30
2014,12,19,19,12,6.30
2014,12,19,19,13,6.30
2014,12,19,19,14,6.30
2014,12,19,19,15,6.30
2014,12,19,19,16,6.30
2014,12,19,19,17,6.30
2014,12,19,19,18,6.30
2014,12,19,19,19,6.30
2014,12,19,19,20,6.30
2014,12,19,19,21,6.30
2014,12,19,19,22,6.30
2014,12,19,19,23,6.30
2014,12,19,19,24,6.30
2014,12,19,19,25,6.30
2014,12,19,19,26,6.30
2014,12,19,19,27,6.30
2014,12,19,19,28,6.30
2014,12,19,19,29,6.30
2014,12,19,19,30,6.30
2014,12,19,19,31,6.30
2014,12,19,19,32,6.30
2014,12,19,19,33,6.20
2014,12,19,19,34,6.20
2014,12,19,19,35,6.20
2014,12,19,19,36,6.20
2014,12,19,19,37,6.20
2014,12,19,19,38,6.20
2014,12,19,19,39,6.10
2014,12,19,19,40,6.10
2014,12,19,19,41,6.10
2014,12,19,19,42,6.10
2014,12,19,19,43,6.10
2014,12,19,19,44,6.10
2014,12,19,19,45,6.10
2014,12,19,19,46,6.00
2014,12,19,19,47,6.00
2014,12,19,19,48,6.00
2014,12,19,19,49,6.00
2014,12,19,19,50,6.00
2014,12,19,19,51,6.00
2014,12,19,19,52,6.00
2014,12,19,19,53,6.00
2014,12,19,19,54,6.00
2014,12,19,19,55,5.90
2014,12,19,19,56,5.90
2014,12,19,19,57,5.90
2014,12,19,19,58,5.90
2014,12,19,19,59,5.90
2014,12,19,20,00,5.90
2014,12,19,20,01,5.90
2014,12,19,20,02,5.90
2014,12,19,20,03,5.90
2014,12,19,20,04,5.90
2014,12,19,20,05,5.90
2014,12,19,20,06,5.90
2014,12,19,20,07,5.90
2014,12,19,20,08,5.80
2014,12,19,20,09,5.80
2014,12,19,20,10,5.80
2014,12,19,20,11,5.70
2014,12,19,20,12,5.70
2014,12,19,20,13,5.70
2014,12,19,20,14,5.70
2014,12,19,20,15,5.70
2014,12,19,20,16,5.70
2014,12,19,20,17,5.70
2014,12,19,20,18,5.70
2014,12,19,20,19,5.70
2014,12,19,20,20,5.70
2014,12,19,20,21,5.70
2014,12,19,20,22,5.70
2014,12,19,20,23,5.70
2014,12,19,20,24,5.70
2014,12,19,20,25,5.70
2014,12,19,20,26,5.70
2014,12,19,20,27,5.70
2014,12,19,20,28,5.70
2014,12,19,20,29,5.70
2014,12,19,20,30,5.70
2014,12,19,20,31,5.70
2014,12,19,20,32,5.70
2014,12,19,20,33,5.70
2014,12,19,20,34,5.70
2014,12,19,20,35,5.60
2014,12,19,20,36,5.60
2014,12,19,20,37,5.60